Find Starlink 3611

NORAD ID: 51779 Int'l Des: 2022-017 Owner: SPXS Country: US Constellation: starlink operational
LEOCIRCULAR

Current View

Loading 3D Globe...

About Starlink 3611

Starlink 3611 (NORAD 51779) is a starlink constellation satellite (v1.5) launched Feb 25, 2022 by SPXS of US. It operates in LEO, CIRCULAR orbit with a mass of 297.00 kg.

About Starlink 3611

Description loading...

Upcoming Passes

Passes for default location (London). Set your location on the main map for personalized predictions.

Altitude History

Loading altitude history...

Two-Line Element Set

1 51779U 22017M 26171.46319455 .00000323 00000-0 38391-4 0 9991
2 51779 53.1585 237.6842 0001144 84.8717 275.2405 15.08837569238083
Epoch: Jun 20, 2026 • Age: 21 hours

Current Status

Altitude 541.9 km
Velocity 7.60 km/s
Sub-Earth Point 35.77°N, 123.13°W
Launch Date Feb 25, 2022
Age 4.3 years
Type internet

Technical Details

Classification Payload
Mass 297.00 kg
Dry Mass 275.00 kg
Total Mass 297.00 kg
Length 0.20 m
Diameter 2.80 m
Span 9.00 m
Shape Box + pan
Manufacturer SPXS
Bus Type Starlink
Phase Status In Orbit
Owner/State SPXS/US

Most Searched